Terug naar catalogus

BREEZE-M R/B

ActiefHEO
NORAD 39123·ROCKET BODY·🇷🇺 Russia

Gelanceerd Mar 26, 2013 vanaf Baikonur Cosmodrome

Loading…

Volgende Passages (komende 24 uur)

TLE

VerouderendSource: Space-Track

Epoch: Aug 25, 2026, 21:31 UTC

1 39123U 13012B   26237.89685760  .00000017  00000-0  00000-0 0  9992
2 39123  17.8515 135.0619 5463564 216.0122  90.5005  2.05414428100638

Volg BREEZE-M R/B in realtime met AllMySat

Download on the App Store